sat.trackr.live / text

‹ back to catalog

YAOGAN-30 04B

NORAD 43082 · 2017-085B

PAYLOAD ACTIVE UNKNOWN

§ Identity

Operator
Country
PRC
Launch date
2017-12-25
Launch site
XICLF
Launch vehicle
Mass (kg)
RCS (m²)

External: N2YO · Heavens-Above · Gunter

§ Orbital elements

Epoch: 2026-05-25T02:52:54.389280Z

Period
95.84 min
Inclination
34.9952°
Eccentricity
0.0004103
Mean motion
15.02562009 rev/d
Perigee alt
556.2 km
Apogee alt
561.8 km
Semi-major
6,937.1 km
B*
1.9392e-4
RAAN
290.7302°
Arg perigee
148.8305°
Mean anomaly
211.2647°
Rev number
45,922

§ Raw data

YAOGAN-30 04B1 43082U 17085B   26145.12007395  .00002603  00000+0  19392-3 0  99902 43082  34.9952 290.7302 0004103 148.8305 211.2647 15.02562009459226

JSON: /api/v1/satellites/43082 · /tle

For live sub-satellite position, see the globe view (requires WebGL).

§ Visibility from observer

Set your observer location to see the next 7 days of passes ≥ 10°. The values pass through the URL so the page stays shareable.

No JS? Fill the form by hand. The geolocation button needs JavaScript.